Location: Altleiningen
(49.5078°N, 8.0741°E)
Time: 23:09:16
(UTC+00:00)

NOSS 3-3 (C) - Pass Details

Date: 03 March 2021
Orbit: 813 x 1399 km, 63.4° (Epoch: 13 April)

Event Time Altitude Azimuth Distance (km) Brightness Sun altitude
Rises 20:07:36 0° 317° (NW) 3,922 8.2 -28.3°
Reaches altitude 10° 20:10:08 10° 317° (NW) 3,041 7.4 -28.7°
Maximum altitude 20:17:34 90° 250° (WSW) 1,266 4.4 -29.8°
Enters shadow 20:18:47 68° 140° (SE) 1,362 4.4 -29.9°
